Location: Poughquag
(41.6090°N, 73.6820°W)
Time: 12:22:04
(UTC-04:00)

Tiros 1 - Pass Details

Date: 07 June 2020
Orbit: 630 x 664 km, 48.4° (Epoch: 06 July)

Event Time Altitude Azimuth Distance (km) Brightness Sun altitude
Rises 13:15:41 0° 283° (WNW) 2,979 10.6 70.7°
Reaches altitude 10° 13:18:12 10° 292° (WNW) 2,063 9.9 70.6°
Maximum altitude 13:22:35 36° 359° (N) 1,039 8.5 70.3°
Drops below altitude 10° 13:26:56 10° 66° (ENE) 2,042 9.7 70.0°
Sets 13:29:25 0° 75° (ENE) 2,945 10.4 69.8°
